[Iaude] MPEC U35: 2016 TF93 [a=2.46,e=0.51,i=12.4,H=18.0]

mpec at si.edu mpec at si.edu
Fri Oct 21 13:58:39 EDT 2016


M.P.E.C. 2016-U35                                Issued 2016 Oct. 21, 17:54 UT
 
     The Minor Planet Electronic Circulars contain information on unusual
         minor planets and routine data on comets.  They are published
    on behalf of Division F of the International Astronomical Union by the
          Minor Planet Center, Smithsonian Astrophysical Observatory,
                          Cambridge, MA 02138, U.S.A.

             Prepared using the Tamkin Foundation Computer Network

                              MPC at CFA.HARVARD.EDU
            URL http://www.minorplanetcenter.net/    ISSN 1523-6714


                                   2016 TF93
 
                           Revision to MPEC 2016-U26
 
Additional Observations:
     K16T93F  C2002 04 21.49144 15 27 31.15 +05 18 42.2          19.9 RcEU035644
     K16T93F  C2002 04 21.50200 15 27 30.39 +05 18 45.0          20.0 RcEU035644
     K16T93F  C2002 05 05.42672 15 10 15.34 +05 59 05.3          19.5 RcEU035644
     K16T93F  C2002 05 05.43722 15 10 14.55 +05 59 06.4          19.7 RcEU035644
     K16T93F  C2002 05 05.44756 15 10 13.73 +05 59 06.2          19.6 RcEU035644
     K16T93F  C2002 05 13.35644 15 00 50.43 +05 55 42.4          20.2 RcEU035644
     K16T93F  C2002 05 13.37042 15 00 49.47 +05 55 40.6          20.4 RcEU035644
     K16T93F  C2002 05 13.38209 15 00 48.63 +05 55 39.3          20.5 RcEU035644
 
Observer details:
644 Palomar Mountain/NEAT.  Observers E. F. Helin, S. Pravdo, K. Lawrence,
    K. Kuluhiwa, M. Hicks, R. Thicksten.  Measurer R. Matson.  1.2-m Schmidt
    + CCD.
 
Orbital elements:
2016 TF93                                                Earth MOID = 0.2298 AU
Epoch 2016 July 31.0 TT = JDT 2457600.5                 MPC
M 290.92912              (2000.0)            P               Q
n   0.25487835     Peri.  354.28355     -0.47697704     -0.86074742
a   2.4636599      Node   124.07932     +0.81465524     -0.50888708
e   0.5070245      Incl.   12.39474     +0.32989353     +0.01215775
P   3.87           H   18.0           G   0.15           U   2
Residuals in seconds of arc
020421 644  0.3+  0.0     160803 F51  0.3-  0.3+    161009 F51  0.1-  0.2+
020421 644  0.6+  0.3-    160812 F51  0.1+  0.0     161009 F51  0.1-  0.2+
020505 644  0.0   0.1-    160812 F51  0.1+  0.1-    161010 807  0.0   0.1-
020505 644  0.2+  0.6+    160812 F51  0.3+  0.0     161010 807  0.2+  0.1+
020505 644  0.3-  0.1-    160830 F51  0.1+  0.0     161010 807  0.3+  0.0
020513 644  0.2-  0.4+    160830 F51  0.1+  0.1+    161010 926  0.5-  0.2+
020513 644  0.0   0.0     160830 F51  0.0   0.0     161010 926  0.1+  0.4+
020513 644  0.3-  0.1-    160908 F51  0.1+  0.1-    161010 926  0.2-  0.3-
160730 F51  0.0   0.1-    160908 F51  0.2+  0.1-    161010 568  0.3+  0.2-
160730 F51  0.2-  0.3-    160908 F51  0.2+  0.1-    161010 568  0.2+  0.2-
160803 F51  0.3-  0.1+    160908 F51  0.1+  0.1-    161010 568  0.2+  0.2-
160803 F51  0.2-  0.3-    161009 F51  0.1+  0.1+
160803 F51  0.1-  0.0     161009 F51  0.1-  0.1+

Ephemeris:
2016 TF93                a,e,i = 2.46, 0.51, 12                  q = 1.2145
Date    TT    R. A. (2000) Decl.     Delta      r     Elong.  Phase     V
2016 09 21    00 46 55.5 -14 45 05   1.3782  2.3493   160.7     8.1    21.1
...
2016 10 06    00 31 10.6 -17 34 43   1.3069  2.2610   157.0    10.0    21.0
...
2016 10 14    00 22 12.0 -18 44 33   1.2926  2.2128   149.9    13.1    21.0
...
2016 10 20    00 15 47.8 -19 23 16   1.2916  2.1763   143.8    15.7    21.1
2016 10 21    00 14 46.9 -19 28 29   1.2922  2.1702   142.8    16.1    21.1
2016 10 22    00 13 47.1 -19 33 19   1.2930  2.1640   141.7    16.5    21.1
...
2016 10 28    00 08 16.0 -19 54 29   1.3017  2.1270   135.4    19.1    21.2
...
2016 11 05    00 02 26.8 -20 01 39   1.3225  2.0771   127.1    22.4    21.3
...
2016 11 20    23 57 25.9 -19 15 07   1.3813  1.9823   112.5    27.4    21.4

A. U. Tomatic                (C) Copyright 2016 MPC           M.P.E.C. 2016-U35




More information about the Iaude mailing list